BEIDOU-3 M1 (C19)

Last updated on Aug. 7, 2020, 5:36 a.m. UTC

1 43001U 17069A   20219.72048348 -.00000012  00000-0  00000-0 0  9995
2 43001  55.2328 134.5105 0010984 292.5878 345.3809  1.86231904 18732
UTC
Height (km)
Latitude
Longitude
Inclination
Orbital Period
UTC large
Height (km)
Speed (km/s)
/
Latitude / Longitude
Inclination (degrees)
Orbital Period (minutes)
Azimuth
Elevation
Range (km)
Doppler Factor
iOS Compass Heading
iOS Angle

Next 30 passes for location: Hong Kong

Rise time Rise Azimuth (degrees) Set time Set Azimuth (degrees) Duration Max altitude (degrees)

No matching passes for this satellites